Lid_Strength_Index
-1 -1 -1 -1 -1 -1 -1 -1 -0 -1 -1 -1 -1 -1 -1 -0 0 4 8 6 4 -2 0 5 6 7 8 9 8 9 13 16 15 14 13 11 11 9 9 10 10 8 9 8 7
-1 -1 -1 -1 -1 -1 -0 -1 -1 -1 -1 -1 -1 -1 -0 -0 5 7 3 0 -2 -2 6 7 8 8 10 10 10 11 14 13 12 13 13 11 11 11 11 11 11 10 8 7 7
-1 -0 -1 -1 -1 -1 -0 -1 -1 -1 -1 -1 -1 -0 -1 2 7 8 -1 -2 -2 -0 6 7 7 8 11 11 11 12 13 13 12 11 10 11 11 10 11 12 10 10 9 7 8
0 0 -0 -0 -0 -1 -0 -0 -0 -1 -1 -1 -1 -0 -0 5 14 8 -2 -2 -2 4 5 7 9 10 12 12 11 13 11 11 11 10 11 12 11 12 11 10 10 9 8 7 8
1 1 1 0 0 -0 0 0 0 0 -1 -1 -1 -0 4 9 9 2 -1 -1 3 5 7 8 10 11 13 13 12 13 12 10 10 10 10 11 11 11 11 10 9 9 8 8 7
1 2 2 1 1 1 0 0 0 0 -1 -1 -0 1 8 13 8 1 1 4 5 6 7 8 9 9 11 12 12 13 12 11 11 11 11 11 12 11 11 10 10 9 9 8 7
2 2 2 2 2 1 1 0 -0 -1 -1 -1 -0 4 8 10 6 2 4 6 4 6 8 8 8 10 11 13 11 12 13 12 12 12 12 11 13 12 10 10 10 10 10 8 8
3 3 3 2 2 2 1 0 -0 -0 -1 -1 -0 5 11 7 5 4 7 7 5 6 7 7 7 9 11 11 12 14 15 16 14 12 12 12 15 12 11 11 11 10 10 10 9
3 3 3 3 3 2 1 1 1 -0 -0 -0 7 9 12 4 7 7 7 8 7 8 8 6 8 11 11 14 16 16 18 17 15 13 12 14 14 12 11 11 11 12 11 11 10
4 4 4 4 3 3 1 1 0 1 2 3 6 11 9 9 8 7 8 7 9 9 9 10 11 14 15 15 18 18 18 18 17 14 13 15 14 12 11 12 13 12 13 13 13
4 4 4 4 4 3 4 5 8 9 8 10 10 10 9 8 7 8 7 8 9 11 14 13 15 16 15 14 16 16 17 17 15 13 14 14 14 13 13 14 14 14 15 15 15
4 5 5 4 4 3 5 9 9 9 12 8 8 9 8 8 10 9 7 10 11 14 13 14 16 14 13 13 14 15 17 17 14 13 14 15 14 14 15 15 15 16 16 16 16
4 5 4 4 4 5 8 8 6 7 12 11 8 9 9 9 11 10 9 11 12 14 13 15 13 11 13 14 15 16 17 16 15 14 14 16 16 16 16 15 15 16 17 17 18
4 4 4 4 5 6 8 5 5 7 17 15 11 10 9 9 12 8 9 10 13 14 14 14 12 13 14 14 14 17 14 14 15 16 18 16 19 17 17 18 18 19 19 19 19
5 4 3 4 7 7 6 4 5 11 22 12 11 7 9 11 11 10 9 11 14 13 14 14 14 14 15 14 13 14 13 14 15 17 18 18 18 17 18 20 20 20 20 20 20
3 3 3 5 6 6 4 5 8 17 23 13 11 12 12 11 11 11 11 10 11 13 14 13 12 13 13 12 13 13 14 15 16 17 20 18 17 20 22 21 21 21 21 21 21
3 3 4 4 6 3 4 9 17 21 13 14 13 12 12 13 12 12 13 14 15 17 17 15 14 13 12 15 14 14 16 19 20 21 20 18 18 22 21 21 22 22 22 21 21
3 3 3 6 7 3 6 12 20 14 14 10 11 12 13 12 12 12 14 15 13 14 17 17 17 14 11 13 14 15 15 18 21 21 20 18 19 22 21 21 21 21 21 22 22
4 7 8 9 5 5 10 16 15 13 12 12 12 15 15 13 13 14 15 14 13 14 16 17 16 12 12 12 12 15 16 13 16 18 19 18 23 21 20 21 22 22 22 22 22
8 8 10 10 7 7 11 13 13 13 12 12 15 14 17 15 16 16 16 13 13 13 13 15 18 13 12 11 11 13 12 16 16 21 22 19 21 22 23 23 22 23 23 22 22
9 13 10 10 7 10 15 13 13 13 12 12 14 15 15 16 15 16 14 15 14 14 14 15 16 17 15 15 15 14 16 15 15 16 20 20 21 22 24 23 23 23 23 23 22
9 13 8 8 13 15 15 12 10 14 13 11 12 13 14 15 16 15 15 15 14 15 19 16 18 21 18 15 14 16 17 16 18 21 19 18 23 22 22 22 22 23 22 22 22
12 14 10 10 16 17 15 14 15 15 15 13 16 15 15 16 19 16 15 14 15 16 19 17 20 26 21 15 16 19 21 19 17 17 22 20 24 23 23 23 22 23 22 22 22
14 16 13 12 14 16 16 16 16 14 15 15 16 16 17 19 17 18 18 15 15 16 12 14 19 23 26 22 20 21 23 22 23 28 27 26 30 29 26 25 23 24 23 23 23
14 16 15 17 16 16 16 16 17 17 15 15 16 17 18 20 19 20 18 18 16 15 16 18 25 21 19 18 19 25 24 23 26 30 27 31 32 33 30 27 26 25 23 24 24
14 15 15 16 15 17 16 17 17 17 17 17 17 17 18 19 19 20 19 19 19 17 19 17 25 20 24 20 21 27 26 24 24 27 30 32 32 29 28 27 27 27 23 25 24
13 13 15 15 17 18 18 17 17 16 15 15 17 18 18 17 17 16 16 16 17 18 19 18 21 26 30 21 22 26 28 24 25 26 26 27 29 27 26 24 25 26 25 24 24